Location: Newark
(44.1667°N, 8.2500°E)
Time: 04:47:29
(UTC+00:00)

S-56A Canister/Altair - Pass Details

Date: 16 December 2019
Orbit: 634 x 2498 km, 38.9° (Epoch: 23 January)

Event Time Altitude Azimuth Distance (km) Brightness Sun altitude
Rises 06:36:23 0° 211° (SSW) 4,871 11.6 -3.8°
Reaches altitude 10° 06:39:35 10° 203° (SSW) 4,129 11.4 -3.3°
Maximum altitude 06:49:52 37° 141° (SE) 3,073 11.4 -1.7°
Drops below altitude 10° 07:02:39 10° 82° (E) 5,147 12.6 0.2°
Sets 07:07:09 0° 76° (ENE) 6,180 12.8 0.9°
